sat.trackr.live / text

‹ back to catalog

STARLINK-11495 [DTC]

NORAD 62275 · 2024-237J

PAYLOAD ACTIVE UNKNOWN

§ Identity

Operator
Country
US
Launch date
2024-12-08
Launch site
AFETR
Launch vehicle
Mass (kg)
RCS (m²)

Purposes: comms

External: N2YO · Heavens-Above · Gunter

§ Orbital elements

Epoch: 2026-09-21T10:51:59.781600Z

Period
91.67 min
Inclination
43.0006°
Eccentricity
0.0003047
Mean motion
15.70823919 rev/d
Perigee alt
354.5 km
Apogee alt
358.6 km
Semi-major
6,734.7 km
B*
9.3891e-4
RAAN
317.2479°
Arg perigee
284.9314°
Mean anomaly
75.1216°
Rev number
10,378

§ Raw data

STARLINK-11495 [DTC]1 62275U 24237J   26264.45277525  .00121739  00000+0  93891-3 0  99922 62275  43.0006 317.2479 0003047 284.9314  75.1216 15.70823919103781

JSON: /api/v1/satellites/62275 · /tle

For live sub-satellite position, see the globe view (requires WebGL).

§ Visibility from observer

Set your observer location to see the next 7 days of passes ≥ 10°. The values pass through the URL so the page stays shareable.

No JS? Fill the form by hand. The geolocation button needs JavaScript.